Weather in Akhmeta

Georgia     42°01′57″N   45°12′19″E
temp.,
°C
wind,
m/s
gust,
m/s
humid.,
%
clouds,
%
prec.,
mm/h
press.,
hPa
HPBL,
m
23 october, sat
sat2301:00+8wsw11700 0.0 102310
04:00+7wsw22700 0.0 102310
07:00+7sw22650 0.0 102113
10:00+14ne10440 0.0 1021261
13:00+16ene21440 0.0 1020548
16:00+16ne21480 0.0 1018463
19:00+11wsw11660 0.0 101910
22:00+9wsw21600 0.0 102010
24 october, sun
sun2401:00+9wsw22550 0.0 102013
04:00+8wsw32590 0.0 101925
07:00+8wsw33620 0.0 101836
10:00+14wsw22461 0.0 1017290
13:00+18ene22375 0.0 1016999
16:00+16ene21435 0.0 1016558
19:00+10wsw11635 0.0 101710
22:00+10wsw22545 0.0 101711
25 october, mon
mon2501:00+9wsw224561 0.0 101718
04:00+8wsw4654100 0.0 1017163
07:00+8wsw467386 0.0 1017201
10:00+12w6145788 0.0 10171163
13:00+10w122060100 0.0 10181243
16:00+9w1120581 0.0 10181232
19:00+6w7166743 0.0 1022821
22:00+4wsw46715 0.0 1024197
26 october, tue
tue2601:00+3wsw34785 0.0 102594
04:00+3wsw34823 0.0 102673
07:00+2wsw34846 0.0 102866
10:00+7w22581 0.0 1028497
13:00+10ene32448 0.0 10271274
16:00+10e325311 0.0 1026964
19:00+5e117745 0.0 103014
22:00+5e127981 0.0 1031234
27 october, wed
wed2701:00+5ene239799 0.3 1033280
04:00+4ene2298100 0.7 1033272
07:00+4nne119797 0.2 1033212
10:00+4ne109294 0.4 1033295
13:00+7ene127283 0.1 1031819
16:00+8e226477 0.1 1029699
19:00+5ene007330 0.0 103010
22:00+3w118130 0.0 103110